CAPE
1881 2723 2904 3030 2808 3055 2863 3006 2971 3054 2977 3193 3156 3061 2970 2930 2767 2691 2430 2096 1788 1596 1592 1585 1563 1413 1282 1284 1583 1271 1392 1434 1334 1090 931 981 1059 917 1055 780 511 259 336
1980 2711 3578 3433 3322 2889 3182 3313 3175 3110 3118 3209 2979 2934 2885 3056 2753 2290 2569 2098 1668 1438 1583 1631 1638 1523 1267 1438 1640 1337 1335 1778 1740 1029 791 1003 1010 807 718 600 296 375 530
2322 2710 3042 3370 3570 3374 3186 3295 3306 3182 2950 3090 3394 3237 3143 3247 2741 2472 2349 2061 1839 1721 1686 1667 1605 1771 1405 1545 1583 1482 1593 1712 1971 1463 1249 727 703 805 749 669 509 368 399
2210 2634 2838 3520 3631 3581 3519 3439 3386 3246 3018 3140 3124 3005 3168 3153 3059 2591 2552 2285 2108 1876 1873 1738 1603 1812 1353 1528 1814 1603 1723 1502 1331 1476 686 583 692 992 749 761 767 676 452
2215 2492 2739 3790 3841 3697 3767 3566 3489 3406 3383 3309 2947 2587 2621 2770 2540 2441 2219 2021 1912 1873 1635 1739 1605 1623 1395 1523 2045 1701 1747 1602 1600 899 666 696 854 974 917 955 645 761 580
2279 2413 3074 3846 4059 4101 3949 3760 3519 3516 3514 3474 3092 2466 2453 2715 2628 2515 2496 2331 2102 1788 1698 1610 1422 1587 1564 1374 2035 1932 1992 1609 1114 570 741 988 965 1369 1022 977 839 715 530
2360 2433 3079 3759 3806 3959 4166 3925 3686 3440 3591 3336 2909 2464 2327 2620 2761 2612 2178 2412 2114 1954 1943 1677 1537 1503 1563 1413 1720 2011 1861 1202 659 574 575 837 829 1670 1123 1082 459 550 674
2462 3056 3185 3792 3968 4176 4179 4055 3863 3446 3280 3061 2881 2553 2521 2705 2847 2330 2203 2194 2328 2103 1975 1730 1720 1661 1731 1604 1502 1929 1635 929 872 639 568 819 1306 1803 1153 1145 718 481 846
2557 2716 2986 3228 3574 4112 4389 4260 3997 3542 3379 3509 3285 3284 2997 2817 2588 2233 2642 2374 2323 2146 2180 1770 1686 1636 1634 1901 1560 1557 1624 871 638 579 606 740 1908 1803 1289 1419 959 564 948
2506 2669 2913 3038 2931 3349 3780 4327 4074 3732 3494 2875 2905 3021 2958 2935 2553 2648 3041 2829 2309 2137 2169 1934 1810 1817 1851 1640 1952 1620 1357 878 534 579 564 498 1902 1813 1586 1422 1172 443 541
2275 2782 2916 2920 2690 3007 3275 3519 3804 3580 3123 2815 2933 3042 3221 2644 2282 2396 2551 2504 2342 2139 2041 2007 1800 1588 1595 1611 1544 1814 1507 557 431 535 509 1004 1882 1962 1620 1536 1592 1019 486
2336 2631 2841 2807 2923 2750 3174 3097 3370 2811 2839 2744 2861 2830 2846 2538 2080 2246 2555 2349 2328 2206 2153 1959 1965 1843 1694 1131 1141 1384 1160 791 318 282 613 1362 1769 1838 2080 2175 1625 1217 1024
2070 2226 2633 2655 2621 2724 3160 3331 3056 3046 3001 2997 2821 2752 2649 2003 2120 2502 2057 1950 2023 2094 1770 2125 2125 1924 1375 917 855 944 1047 639 249 666 902 1542 1873 2025 1978 2094 1523 1063 764
2164 2240 2550 2679 2389 2473 2581 2646 2646 2558 2763 2612 2426 2110 2117 2040 1962 1907 1580 1653 1420 1586 1390 1560 1606 1588 1440 1205 950 678 677 529 204 455 697 1370 1864 2333 2310 2024 1745 1438 1152
2327 2316 2383 2575 2380 2328 2259 2286 2260 2099 1839 1674 1478 1453 1685 1815 1577 1670 1433 1375 1196 1244 1156 1149 1179 1078 1063 973 993 658 596 438 351 418 384 1147 1868 1868 2080 1979 1653 1474 1470
2293 2385 2399 2432 2468 2381 2239 2075 1823 1775 1386 1145 941 943 1122 1344 1273 1198 1137 1026 1028 1099 1089 1130 969 990 808 784 919 827 495 463 399 381 383 363 1665 1637 2181 2250 1841 1543 1355
2207 2150 2409 2533 2586 2374 2192 1959 1504 1295 1312 1229 993 899 490 490 621 853 785 812 819 826 809 819 779 637 714 660 617 706 595 419 393 392 289 183 539 1508 2072 1999 2388 2038 1925
2193 2250 2239 2306 2241 2050 1531 1433 1138 952 686 617 1038 1188 1036 501 454 392 357 371 456 541 652 536 615 546 524 500 532 609 639 491 392 356 322 274 234 312 912 1835 2055 2214 1995
1968 2180 2280 2204 2089 1730 1521 1280 1037 655 181 320 905 1130 872 595 518 717 565 365 704 552 494 466 373 431 433 461 455 457 556 454 286 502 369 255 255 261 270 997 1576 2062 1857
1879 2192 2292 2153 2001 1589 1356 1216 993 1286 1219 977 1000 960 865 642 524 805 661 614 591 522 410 380 439 335 372 348 381 711 531 494 310 450 430 378 294 313 291 393 546 1065 1795
895 1714 2004 2098 2060 1731 1444 1516 1581 1626 1406 1217 1081 984 791 730 587 521 518 415 412 385 388 447 419 275 333 281 335 325 446 589 487 483 547 525 518 455 373 388 368 994 1260
108 906 187 448 660 1570 1652 1581 1552 1106 928 748 602 497 434 309 395 421 291 252 311 211 270 376 346 224 142 214 242 219 221 335 449 403 412 512 656 546 508 521 476 411 534
332 426 23 58 463 794 1531 1528 1194 948 787 602 366 250 147 116 164 140 162 135 166 167 142 282 279 309 185 121 174 100 97 78 176 230 269 488 478 568 529 411 368 364 331
383 330 0 0 164 894 1353 1145 976 682 377 249 79 37 31 3 9 75 81 124 122 106 115 198 329 248 206 149 155 156 128 83 49 145 277 441 633 510 436 435 453 449 363
44 340 0 96 290 980 1362 1056 577 301 134 90 7 0 0 1 0 10 77 99 134 120 89 199 281 304 181 90 90 202 160 184 100 43 15 12 198 348 403 371 334 289 339
133 157 145 433 857 1095 1021 543 166 55 0 34 3 5 1 2 0 31 22 100 127 119 107 153 289 330 295 219 98 120 128 122 117 86 61 23 2 6 129 331 407 384 296
CIN
-9 0 -1 0 -1 0 0 0 0 0 0 0 0 0 0 0 0 0 0 0 0 0 0 0 0 -2 -6 -10 -5 -3 0 0 0 0 0 0 0 0 0 0 0 -3 -15
-25 0 0 0 0 0 0 0 0 0 0 0 0 0 0 0 0 0 0 0 0 0 0 0 0 0 -3 -4 -3 0 0 0 0 0 0 0 0 0 0 0 -7 -2 -1
-22 0 0 0 0 0 0 0 0 0 0 0 0 0 0 0 0 0 0 0 0 0 0 0 0 0 0 0 -1 0 0 0 0 0 0 -2 0 0 0 0 0 0 -1
-49 -7 0 0 0 0 0 0 0 0 0 0 0 0 0 0 0 0 0 0 0 0 0 0 -1 0 0 0 0 0 0 0 0 0 -12 -15 0 0 0 0 0 0 0
-31 -26 -12 0 0 0 0 0 0 0 0 0 0 0 0 0 0 0 0 0 0 0 0 0 -1 -4 0 0 0 0 0 0 0 -8 -8 -5 -4 -1 0 0 0 0 0
-21 -26 -1 0 0 0 0 0 0 0 0 0 0 -1 0 0 0 0 0 0 0 -1 0 0 -6 -3 0 0 0 0 0 0 -1 -5 -3 -8 -2 0 0 0 0 0 0
-9 -10 0 0 0 0 0 0 0 0 0 0 0 0 0 0 0 0 0 0 0 0 -1 -3 -2 0 -3 0 -4 0 0 -1 -11 -14 -9 -9 -4 0 0 0 0 0 0
-29 0 0 0 0 0 0 0 0 0 0 0 0 -1 0 0 0 0 0 0 0 0 0 -5 0 0 -1 0 -5 -1 -3 -5 -15 -17 -34 -16 -10 0 0 0 0 0 0
-23 -22 -2 0 -1 0 0 0 0 0 0 0 0 0 0 0 0 0 0 0 -2 0 0 -4 -5 0 -1 -1 -3 -4 -4 -6 -13 -13 -35 -22 -2 -1 0 0 0 0 0
-29 -14 -4 -4 -8 -7 0 0 0 0 0 0 0 0 0 0 0 0 0 0 0 0 -2 -3 -4 -8 -5 -5 0 -3 -5 -6 -11 -22 -34 -38 -4 0 0 0 0 -2 0
-28 -8 0 -2 -20 -12 -6 -1 -1 0 0 0 -1 0 -1 0 0 -1 -4 -2 0 -1 -2 -5 -7 -8 -17 -7 -4 -2 -3 -41 -42 -18 -38 -25 -4 0 0 0 0 0 0
-25 -11 -2 -2 -6 -17 -3 -2 -1 -1 -1 -2 -2 -2 -2 -1 -1 -3 -3 -3 -1 0 0 -4 -4 -4 -7 -28 -14 -3 -10 -22 -43 -25 -43 -15 -5 -1 0 0 0 0 0
-69 -38 -14 -10 -20 -3 0 0 -2 0 0 0 -2 -1 -2 -12 -10 -1 -5 -2 -9 -4 -12 -3 -2 -4 -23 -40 -32 -21 -14 -40 -58 -72 -62 -13 -4 0 0 0 0 0 0
-57 -64 -29 -13 -24 -23 -8 -24 -25 -25 -10 -17 -6 -7 -10 -10 -13 -16 -30 -34 -39 -24 -34 -14 -14 -17 -13 -23 -34 -34 -24 -37 -87 -75 -59 -22 -3 -1 0 0 0 0 0
-72 -67 -51 -35 -36 -35 -29 -25 -21 -31 -49 -42 -50 -53 -30 -16 -28 -19 -28 -34 -51 -46 -55 -43 -33 -41 -36 -33 -29 -45 -33 -41 -71 -54 -113 -27 -3 -4 -2 0 0 0 0
-88 -73 -53 -43 -32 -28 -33 -33 -52 -64 -85 -78 -80 -77 -45 -33 -33 -28 -38 -34 -40 -50 -49 -34 -37 -37 -41 -49 -35 -40 -38 -42 -79 -39 -43 -51 -6 -9 -1 0 0 0 0
-78 -104 -83 -46 -27 -20 -24 -29 -39 -65 -52 -53 -70 -66 -106 -123 -74 -45 -36 -39 -40 -44 -36 -43 -36 -52 -41 -32 -50 -44 -46 -36 -76 -49 -33 -27 -63 -7 -1 -2 0 0 0
-57 -73 -87 -64 -50 -39 -59 -38 -44 -57 -74 -91 -51 -35 -34 -75 -77 -50 -63 -88 -57 -44 -37 -46 -45 -58 -53 -41 -39 -53 -43 -38 -93 -83 -75 -81 -109 -59 -23 -1 0 0 0
-104 -108 -76 -58 -53 -55 -45 -51 -44 -53 -90 -184 -65 -41 -45 -36 -71 -32 -22 -61 -26 -28 -30 -48 -59 -52 -52 -43 -46 -50 -55 -52 -78 -74 -79 -83 -86 -104 -82 -22 -2 -1 0
-75 -114 -64 -61 -57 -70 -54 -39 -44 -24 -25 -32 -44 -40 -28 -25 -57 -25 -20 -24 -17 -18 -29 -41 -39 -54 -51 -58 -79 -52 -37 -51 -95 -74 -84 -105 -85 -104 -79 -65 -34 -8 -1
-94 -19 -2 -51 -56 -59 -71 -23 -36 -31 -38 -36 -47 -32 -45 -39 -33 -40 -34 -33 -23 -27 -26 -19 -22 -46 -49 -45 -39 -57 -35 -21 -34 -42 -61 -62 -60 -83 -29 -43 -61 -12 -7
-79 -18 -45 -32 -53 -70 -46 -45 -18 -25 -23 -20 -23 -19 -16 -25 -54 -50 -43 -44 -32 -38 -21 -10 -12 -29 -43 -31 -23 -36 -30 -29 -23 -35 -41 -36 -42 -46 -47 -58 -53 -62 -47
-25 -50 -15 -50 -70 -12 -41 -18 -24 -14 -8 -13 -15 -10 -10 -8 -38 -32 -60 -52 -39 -36 -28 -16 -12 -19 -35 -61 -60 -28 -39 -44 -50 -75 -96 -39 -26 -29 -30 -69 -75 -45 -68
-63 -48 0 0 -50 -32 -33 -35 -20 -4 -24 -38 -37 -41 -44 -18 -63 -43 -37 -37 -20 -23 -35 -26 -8 -21 -27 -33 -60 -57 -75 -66 -58 -54 -51 -50 -26 -44 -60 -56 -36 -26 -16
-93 -61 -3 -57 -68 -15 -29 -10 -10 -32 -39 -31 -64 0 0 -3 0 -56 -42 -34 -30 -24 -33 -22 -9 -8 -21 -35 -38 -59 -62 -61 -46 -34 -25 -98 -88 -58 -71 -65 -47 -33 -31
-40 -105 -284 -184 -66 -44 -13 -31 -93 -115 0 -50 -30 -45 -6 -18 0 -39 -42 -23 -26 -25 -18 -17 -8 -6 -18 -23 -34 -29 -27 -51 -72 -68 -76 -53 -61 -169 -133 -109 -89 -45 -39
Wind_Speed
12 11 17 17 15 17 17 17 17 20 18 17 14 15 15 16 17 18 19 17 16 14 11 10 11 8 5 7 8 7 10 11 11 11 11 12 14 13 13 14 14 14 14
16 14 20 17 17 17 15 15 16 16 17 18 17 16 16 15 18 17 18 16 15 13 13 11 11 8 7 5 7 8 11 9 11 13 11 11 13 13 14 17 17 16 18
17 14 17 19 19 18 17 17 18 18 18 19 20 21 21 20 16 19 18 16 16 15 13 13 12 10 9 7 8 8 11 9 10 12 13 7 8 13 15 16 20 18 18
19 15 14 18 20 20 18 19 21 21 22 22 23 23 23 24 26 20 18 16 15 14 15 14 13 12 12 11 9 8 10 9 10 10 3 6 8 14 14 15 18 19 18
15 13 13 17 15 17 17 17 18 22 24 24 22 22 22 23 24 19 16 13 17 14 14 14 12 13 13 11 11 9 8 9 9 8 3 3 5 12 14 15 17 18 19
17 13 14 17 18 17 16 19 20 20 22 23 22 23 21 21 21 20 15 12 15 16 13 12 12 12 13 12 12 10 9 9 10 4 3 5 5 12 15 15 16 16 19
16 14 15 18 18 18 17 17 17 18 20 22 23 23 22 20 19 18 16 13 11 12 13 11 10 12 13 11 11 12 9 10 7 3 3 4 4 12 13 15 14 15 18
20 15 14 15 14 15 17 17 16 15 15 16 19 20 20 19 19 18 17 14 11 11 15 10 9 11 12 12 10 12 10 10 8 5 5 4 6 11 13 13 13 14 16
16 13 11 11 14 18 19 20 19 20 19 16 15 15 15 16 17 18 17 16 13 12 12 9 8 10 11 12 11 10 11 12 12 10 8 7 10 11 14 14 13 13 15
15 12 13 13 11 14 15 20 22 21 22 21 19 16 13 12 13 15 18 18 15 13 12 9 6 7 10 13 13 12 11 13 15 14 11 9 12 12 14 15 15 14 14
11 13 10 10 12 13 14 15 18 21 21 22 19 17 12 11 11 14 18 18 15 12 12 11 10 6 7 10 11 13 14 15 17 14 13 11 15 14 13 15 14 14 15
13 13 12 11 11 13 13 14 16 16 17 17 15 14 14 13 13 16 15 16 17 13 11 9 12 11 10 14 16 13 19 16 15 14 13 15 15 13 14 14 15 15 17
17 14 13 10 10 13 13 13 14 17 16 18 19 19 17 17 15 18 20 21 21 16 18 13 14 18 15 14 15 17 15 16 16 16 17 18 12 13 15 13 15 16 16
14 15 15 15 11 10 10 9 13 12 13 13 16 17 18 18 15 17 24 25 24 25 18 21 17 18 18 16 15 14 13 15 15 16 14 15 12 11 15 17 16 16 17
18 17 21 21 17 12 10 9 10 11 12 13 13 15 16 16 17 17 20 29 25 22 23 26 23 20 18 18 16 16 15 14 17 17 15 14 17 13 15 17 17 18 19
20 19 19 20 15 11 10 8 7 9 12 13 14 14 16 18 18 19 16 23 26 23 24 19 29 26 21 20 17 17 17 14 17 17 16 15 10 12 16 15 16 19 21
17 19 20 20 15 12 8 6 4 5 7 10 13 16 18 18 19 21 20 23 27 25 23 22 24 30 29 24 20 20 23 13 18 16 15 15 19 9 14 15 18 19 20
11 14 15 15 13 12 10 4 3 4 7 9 12 16 19 20 20 20 22 25 28 27 28 25 26 27 31 31 25 20 21 20 18 17 16 21 23 10 7 12 16 17 18
14 6 7 10 13 9 8 9 8 10 10 12 13 14 18 20 22 24 25 27 28 29 28 27 26 29 26 30 31 24 23 25 20 20 18 20 10 11 12 6 14 16 15
14 9 5 12 14 13 9 12 15 15 12 15 16 19 22 27 29 31 31 29 30 29 27 27 28 25 33 35 36 26 26 25 21 21 16 14 10 11 14 14 11 13 18
44 21 20 9 11 10 8 10 13 16 18 19 21 25 25 23 24 26 28 30 33 31 28 28 27 21 22 29 35 34 31 29 25 22 22 13 11 10 15 14 15 16 13
16 19 34 23 15 5 6 8 13 12 12 20 20 18 16 21 20 16 18 23 30 33 32 28 26 25 20 23 32 33 33 33 30 24 20 15 14 16 17 17 17 17 17
24 27 nan nan 14 10 10 10 10 12 18 20 10 8 8 11 16 17 17 19 25 30 29 27 24 21 22 20 31 33 nan nan 31 27 21 21 19 18 18 19 19 19 20
26 22 nan nan 11 10 11 10 12 14 21 17 nan nan nan nan nan nan nan 23 23 27 27 25 24 23 23 20 26 32 36 nan nan 29 28 27 25 20 19 20 21 20 20
nan 18 nan nan 16 13 14 15 12 13 20 nan nan nan nan nan nan nan nan nan 21 27 nan 24 24 22 21 nan nan 30 30 38 37 nan nan nan 28 23 19 20 24 23 23
20 21 22 19 14 10 11 10 12 nan nan nan nan nan nan nan nan nan nan 13 15 21 24 22 23 20 18 17 nan 25 27 29 31 nan nan nan nan nan 23 23 27 23 25
Wind_Direction
356 341 319 303 304 303 303 314 309 302 306 304 298 300 301 303 304 300 297 294 292 285 276 252 256 259 264 299 318 321 318 325 329 339 2 5 11 18 18 1 359 16 352
331 330 326 316 308 306 309 314 315 312 309 310 313 308 311 312 315 310 297 299 291 286 275 254 247 260 263 278 292 303 306 321 334 334 348 355 354 359 5 4 7 11 4
328 330 327 325 322 313 311 312 309 308 307 309 308 309 313 313 314 312 302 297 294 289 272 258 242 254 271 271 280 299 308 328 344 341 334 53 38 351 5 10 12 10 3
332 332 333 334 326 321 321 315 308 305 302 304 303 306 307 301 300 302 302 296 285 286 274 256 244 252 265 274 281 293 303 323 337 333 45 32 14 359 9 8 16 16 7
338 335 333 333 324 324 323 317 317 312 303 301 301 300 307 305 300 295 288 300 296 284 277 260 245 248 253 267 279 283 292 312 318 315 35 29 22 5 0 1 12 14 15
341 338 344 341 340 341 329 324 320 313 307 299 297 296 295 298 296 291 289 270 275 293 281 262 245 239 254 255 274 277 276 290 287 284 305 348 22 356 354 354 1 11 13
341 344 348 352 348 346 327 320 318 316 309 303 300 298 293 291 290 287 282 270 260 264 280 268 241 237 242 247 264 272 277 293 248 251 301 321 7 351 344 346 349 9 12
335 336 344 344 337 326 323 324 322 318 316 314 302 297 297 295 289 283 276 273 265 250 253 276 261 231 239 248 243 267 265 283 259 245 274 283 343 340 340 331 336 351 1
338 328 328 320 321 318 319 317 318 320 320 322 316 306 300 294 284 277 270 270 269 262 248 239 266 253 220 246 246 251 260 266 248 251 265 263 323 341 335 326 327 334 344
347 332 322 316 299 288 292 314 316 318 316 318 321 327 313 298 282 274 260 259 262 268 259 238 252 249 229 224 242 244 251 259 251 262 270 267 309 330 335 334 322 326 336
345 340 331 314 305 285 279 292 304 310 310 312 314 323 309 259 254 264 246 249 259 269 276 258 238 234 244 219 230 251 256 238 251 253 261 302 315 322 332 341 328 329 335
348 343 339 328 313 287 274 268 268 268 261 269 277 282 271 266 255 246 247 246 254 262 265 263 253 232 227 227 217 233 236 248 254 262 265 305 316 322 330 332 335 341 343
5 343 343 336 314 300 281 268 257 259 260 265 271 260 271 254 256 239 237 233 227 232 240 243 241 234 229 225 225 227 233 246 249 249 272 300 304 319 329 322 337 345 349
357 359 354 354 339 317 298 278 274 268 264 269 259 268 270 257 253 234 229 236 237 234 244 245 236 241 234 233 229 233 238 243 248 258 270 308 320 327 333 339 338 342 343
349 354 358 354 359 3 329 295 289 286 259 270 265 264 263 267 263 244 254 232 237 241 256 249 236 237 236 234 238 243 245 254 260 262 266 331 318 315 323 330 334 340 344
343 351 352 360 357 2 0 350 324 291 282 280 281 281 280 273 262 248 255 232 232 247 261 251 231 237 237 235 227 242 251 252 264 265 262 262 292 310 309 327 339 343 347
347 341 352 2 351 343 353 359 334 316 302 298 287 283 282 273 282 256 242 237 245 247 253 251 234 238 239 240 230 235 242 254 265 275 278 269 263 290 310 322 333 342 343
328 352 341 358 355 348 338 358 17 344 316 297 292 292 293 285 280 265 251 247 248 249 253 251 240 237 242 246 239 238 233 250 261 275 277 271 269 256 288 322 334 339 342
326 319 318 308 327 350 337 329 351 349 326 312 297 286 290 286 285 275 262 252 250 249 250 252 245 242 241 246 242 237 238 245 253 261 273 268 263 251 260 318 341 347 344
257 269 278 292 310 354 336 316 323 322 317 311 312 303 295 283 280 270 264 257 251 245 246 247 245 246 249 257 237 236 239 245 252 258 273 271 224 251 268 270 301 316 346
199 194 199 228 296 319 324 324 325 327 321 317 309 303 297 291 293 287 263 255 250 246 245 246 244 245 255 250 226 225 230 240 249 254 254 221 242 261 273 282 298 298 315
273 199 202 170 189 113 328 332 315 316 303 312 304 304 295 291 289 283 276 254 251 245 242 242 242 238 245 240 229 230 234 232 238 255 247 250 261 262 276 297 297 296 292
354 326 nan nan 125 90 333 326 301 310 311 316 317 307 306 311 284 276 274 261 247 243 241 236 240 241 241 239 231 239 nan nan 239 243 245 256 261 259 270 282 287 288 287
342 14 nan nan 89 63 337 322 314 333 337 330 nan nan nan nan nan nan nan 266 248 236 239 233 236 232 239 246 241 236 231 nan nan 245 237 249 253 259 268 255 270 278 280
nan 9 nan nan 52 23 321 309 333 340 353 nan nan nan nan nan nan nan nan nan 252 229 nan 233 232 234 235 nan nan 242 239 235 237 nan nan nan 243 251 263 265 265 272 283
359 0 1 4 355 339 305 325 341 nan nan nan nan nan nan nan nan nan nan 253 242 222 226 231 227 230 238 243 nan 244 242 246 240 nan nan nan nan nan 252 277 269 266 276